Location: Roc des P�zouls
(43.9667°N, 3.5500°E)
Time: 17:18:08
(UTC+00:00)

Cosmos 990 Rocket - Pass Details

Date: 14 November 2019
Orbit: 746 x 770 km, 74.0° (Epoch: 11 December)

Event Time Altitude Azimuth Distance (km) Brightness Sun altitude
Rises 04:59:48 0° 203° (SSW) 3,183 7.1 -17.9°
Reaches altitude 10° 05:02:08 10° 205° (SSW) 2,266 6.3 -17.4°
Maximum altitude 05:07:16 77° 291° (WNW) 778 3.9 -16.5°
Drops below altitude 10° 05:12:30 10° 18° (NNE) 2,297 6.6 -15.6°
Sets 05:14:53 0° 20° (NNE) 3,231 7.4 -15.2°
